UHMDUHMA

Guest
Details From UHMD - Provideniya Bay
To UHMA - UGOLNY
Flight Number -
Tags generated
Created
Modified
Stats Distance 234 nm / 433 km
Max Altitude 10,800 ft / 3,292 m
Waypoints 4
Social Downloads 2
Likes 0
Share VATSIM

Download

Looking for another format? Having issues loading an existing format? Contact us
Advertisement - Login to hide

Notes

Basic altitude profile: - Ascent Rate: 2500ft/min - Ascent Speed: 250kts - Cruise Altitude: 35000ft - Cruise Speed: 420kts - Descent Rate: 1500ft/min - Descent Speed: 250kts Options: - Use NATs: yes - Use PACOTS: yes - Use low airways: yes - Use high airways: yes

Route

UHMD GIRLO G212 VEDLA UHMA

ID Type Via Altitude Latitude Longitude Leg Dist Tot Dist Heading (true) Name
O UHMD APT - 0 ft / 0 m 64.36548˚ -173.23902˚ - 0 nm - Provideniya Bay
GIRLO FIX - 10,100 ft / 3,078 m 64.37667˚ -174.44000˚ 31 nm 31 nm 272° / 271° -
VEDLA FIX G212 (AWY-LO) 10,800 ft / 3,292 m 64.68167˚ 179.89000˚ 147 nm 178 nm 280° / 275° -
O UHMA APT - 0 ft / 0 m 64.73495˚ 177.74148˚ 55 nm 233 nm 274° / 272° UGOLNY

Altitude Profile

Advertisement - Login to hide

Weather


0- 5 10 15 20 25 30 35+ Temperature / ° C

Clouds and Precipitation
Forecast for 2018-05-23 06:00 UTC. Updated 13 minutes ago

Ground ~20,000 ft ~40,000 ft Winds

UHMD

Details ICAO UHMD (PVS)
Name Provideniya Bay
Region Russia
Timezone Asia/Anadyr (UTC+12.0)
Stats Elevation 71 ft / 22 m (AMSL)
Location 64.365475° -173.239022°
Runways 2
Magnetic Variation 6.022° E

METAR

UHMD 230530Z 13002MPS 9999 OVC019 00/M05 Q1006 RMK QBB570 MT OBSC QFE753/1005

Decode

TAF

Not found

Departure Runways

ID Width Length Bearing (true) Bearing (mag) Surface Threshold Offset Overrun Length
01 299 ft / 91 m 8,140 ft / 2,481 m 21.46° 15.44° Gravel 0 ft / 0 m 0 ft / 0 m
03 213 ft / 65 m 3,998 ft / 1,219 m 32.10° 26.08° Gravel 0 ft / 0 m 0 ft / 0 m
19 299 ft / 91 m 8,140 ft / 2,481 m 201.48° 195.46° Gravel 0 ft / 0 m 0 ft / 0 m
21 213 ft / 65 m 3,998 ft / 1,219 m 212.11° 206.09° Gravel 0 ft / 0 m 0 ft / 0 m

UHMA

Details ICAO UHMA (DYR)
Name UGOLNY
Region Russia
Timezone Asia/Anadyr (UTC+12.0)
Stats Elevation 194 ft / 59 m (AMSL)
Location 64.734950° 177.741483°
Runways 1
Magnetic Variation 1.341° E

METAR

UHMA 230530Z 21004MPS 9999 SCT016 BKN150 01/M01 Q1007 R88/CLRD60 NOSIG RMK END R01/11005MPS QFE751/1002

Decode

TAF

TAF UHMA 230145Z 2303/2403 09006MPS 9999 SCT010 SCT025 TEMPO 2303/2312 06003MPS 1000 SHSNRA BR BKN008 BKN020CB BECMG 2312/2313 01005MPS TEMPO 2313/2403 06003MPS 2000 BR BKN010

Decode

Destination Runways

ID Width Length Bearing (true) Bearing (mag) Surface Threshold Offset Overrun Length
01 197 ft / 60 m 11,439 ft / 3,487 m 14.65° 13.31° Concrete 0 ft / 0 m 240 ft / 73 m
19 197 ft / 60 m 11,439 ft / 3,487 m 194.66° 193.32° Concrete 0 ft / 0 m 240 ft / 73 m

Popular Alternatives